Weather History for White Plains, NY

Change the Weather History Date:

Tuesday, September 4, 2012

  Actual Average Record
Temperature  
Mean Temperature 73 °F -  
Max Temperature 79 °F 75 °F 90 °F (2008)
Min Temperature 68 °F 58 °F 50 °F (1976)
Cooling Degree Days 8    
Growing Degree Days 23 (Base 50)    
Moisture  
Dew Point 70 °F    
Average Humidity 90    
Maximum Humidity 96    
Minimum Humidity 79    
Precipitation  
Precipitation 0.06 in - - ()
Sea Level Pressure  
Sea Level Pressure 29.97 in    
Wind  
Wind Speed 6 mph (SE)    
Max Wind Speed 10 mph    
Max Gust Speed 18 mph    
Visibility 7 miles    
Events Rain    
Averages and records for this station are not official NWS values.
T = Trace of Precipitation, MM = Missing Value Source: NWS Daily Summary

Daily Weather History Graph

Daily Weather History Graph

Search for Another Location

Airport:

Trip Planner

Search our weather history database for the weather conditions in past years. The results will help you decide how hot, cold, wet, or windy it might be!

Date:

Astronomy

Sep. 04, 2012 Rise Set
Actual Time 6:24 AM EDT 7:21 PM EDT
Civil Twilight 5:56 AM EDT 7:49 PM EDT
Nautical Twilight 5:23 AM EDT 8:23 PM EDT
Astronomical Twilight 4:48 AM EDT 8:57 PM EDT
Moon 9:10 PM EDT (9/4) 10:31 AM EDT (9/4)
Length of Visible Light 13h 52m
Length of Day
12h 56m
Waning Gibbous, 84% of the Moon is Illuminated
Sep 4
Waning Gibbous
Sep 8
Last Quarter
Sep 15
New
Sep 22
First Quarter
Sep 29
Full

Hourly Weather History & Observations

Time (EDT) Temp. Dew Point Humidity Pressure Visibility Wind Dir Wind Speed Gust Speed Precip Events Conditions
12:56 AM 69.1 °F 64.9 °F 87% 30.10 in 10.0 mi ESE 5.8 mph - 0.00 in   Overcast
1:56 AM 69.1 °F 64.9 °F 87% 30.08 in 10.0 mi East 4.6 mph - N/A   Overcast
2:56 AM 68.0 °F 64.9 °F 90% 30.05 in 10.0 mi East 6.9 mph - 0.01 in Rain Light Rain
3:56 AM 68.0 °F 66.0 °F 93% 30.04 in 10.0 mi East 5.8 mph - 0.01 in   Overcast
4:56 AM 68.0 °F 66.0 °F 93% 30.04 in 10.0 mi East 6.9 mph - N/A   Overcast
5:56 AM 69.1 °F 66.0 °F 90% 30.04 in 10.0 mi ENE 3.5 mph - N/A   Overcast
6:56 AM 68.0 °F 66.0 °F 93% 30.05 in 9.0 mi East 3.5 mph - 0.00 in   Overcast
7:56 AM 69.1 °F 66.9 °F 93% 30.04 in 10.0 mi East 5.8 mph - 0.00 in   Overcast
8:56 AM 71.1 °F 68.0 °F 90% 30.03 in 10.0 mi East 4.6 mph - N/A   Mostly Cloudy
9:56 AM 73.0 °F 69.1 °F 87% 30.02 in 10.0 mi ESE 4.6 mph - N/A   Overcast
10:56 AM 73.0 °F 70.0 °F 90% 30.01 in 10.0 mi ESE 3.5 mph - 0.00 in   Overcast
11:56 AM 75.0 °F 70.0 °F 84% 30.01 in 10.0 mi South 4.6 mph - N/A   Overcast
12:38 PM 75.2 °F 71.6 °F 89% 30.01 in 2.0 mi SSE 5.8 mph - 0.00 in Rain Light Rain
12:56 PM 73.9 °F 71.1 °F 91% 29.99 in 6.0 mi SSE 5.8 mph - 0.00 in Rain Light Rain
1:56 PM 75.9 °F 72.0 °F 87% 29.97 in 10.0 mi SSE 6.9 mph - 0.01 in   Mostly Cloudy
2:56 PM 78.1 °F 71.1 °F 79% 29.94 in 8.0 mi South 8.1 mph - N/A   Mostly Cloudy
3:56 PM 78.1 °F 71.1 °F 79% 29.93 in 8.0 mi South 10.4 mph 16.1 mph N/A   Mostly Cloudy
4:56 PM 77.0 °F 70.0 °F 79% 29.92 in 10.0 mi South 9.2 mph 18.4 mph N/A   Mostly Cloudy
5:56 PM 75.0 °F 70.0 °F 84% 29.91 in 10.0 mi South 5.8 mph - 0.00 in   Mostly Cloudy
6:56 PM 73.9 °F 72.0 °F 93% 29.89 in 5.0 mi SSE 4.6 mph - 0.00 in Rain Light Rain
7:11 PM 73.4 °F 71.6 °F 94% 29.91 in 5.0 mi South 3.5 mph - 0.00 in Rain Light Rain
7:32 PM 73.4 °F 71.6 °F 94% 29.91 in 5.0 mi South 3.5 mph - 0.00 in   Overcast
7:37 PM 73.4 °F 71.6 °F 94% 29.90 in 1.5 mi SSE 3.5 mph - 0.00 in   Overcast
7:56 PM 73.9 °F 72.0 °F 93% 29.89 in 1.5 mi SSE 4.6 mph - 0.00 in   Overcast
8:56 PM 75.0 °F 73.0 °F 94% 29.89 in 1.5 mi SE 5.8 mph - N/A   Mist
9:56 PM 75.0 °F 73.9 °F 96% 29.87 in 1.5 mi SSE 6.9 mph - 0.01 in Rain Light Rain
10:56 PM 75.0 °F 73.9 °F 96% 29.86 in 1.5 mi South 8.1 mph - 0.00 in Rain Light Rain
11:56 PM 75.0 °F 73.0 °F 94% 29.84 in 3.0 mi South 5.8 mph - 0.02 in   Overcast